CST,Max TemperatureF,Mean TemperatureF,Min TemperatureF,Max Dew PointF,MeanDew PointF,Min DewpointF,Max Humidity, Mean Humidity, Min Humidity, Max Sea Level PressureIn, Mean Sea Level PressureIn, Min Sea Level PressureIn, Max VisibilityMiles, Mean VisibilityMiles, Min VisibilityMiles, Max Wind SpeedMPH, Mean Wind SpeedMPH, Max Gust SpeedMPH,PrecipitationIn, CloudCover, Events, WindDirDegrees
2013-12-1,50,39,27,30,27,24,85,66,46,30.17,30.07,29.92,10,10,8,13,6,16,0.00,1,,40
2013-12-2,56,45,34,39,34,28,82,67,51,29.90,29.70,29.58,10,9,4,18,8,22,T,2,,162
2013-12-3,56,47,37,42,38,36,100,78,55,29.65,29.58,29.52,10,3,0,14,7,18,0.00,4,Fog,130
2013-12-4,39,29,18,38,27,9,100,84,67,30.02,29.71,29.56,10,6,0,25,13,33,0.02,7,Fog-Rain,313
2013-12-5,19,15,11,10,5,0,74,64,54,30.44,30.24,29.97,10,10,10,25,15,31,T,2,,313
2013-12-6,16,10,4,0,-3,-6,76,58,40,30.72,30.56,30.45,10,10,10,18,11,22,0.00,4,,341
2013-12-7,18,8,-3,1,-4,-8,79,58,37,30.82,30.69,30.49,10,10,10,14,8,18,0.00,1,,41
2013-12-8,20,15,9,14,11,1,84,70,55,30.46,30.11,29.99,10,4,0,15,7,20,0.18,8,Fog-Snow,134
2013-12-9,10,4,-2,6,-4,-9,95,74,52,30.39,30.30,30.18,10,10,8,18,10,22,0.00,0,,266
2013-12-10,25,14,2,14,8,-4,79,67,54,30.31,30.23,30.15,10,10,10,24,12,30,0.00,2,,223
2013-12-11,27,14,0,20,4,-6,80,67,53,30.66,30.52,30.23,10,10,8,29,11,35,T,3,Snow,321
2013-12-12,30,16,1,17,8,-5,76,65,53,30.58,30.38,30.17,10,10,10,16,10,20,0.00,0,,206
2013-12-13,32,27,21,30,24,15,92,80,68,30.14,30.00,29.91,10,6,2,20,9,22,0.00,5,,103
2013-12-14,26,20,13,22,17,9,92,80,68,30.23,30.11,29.96,10,6,2,22,12,27,0.00,7,,335
2013-12-15,30,21,12,20,16,9,88,76,63,30.18,30.09,29.97,10,9,7,12,4,14,0.00,4,,61
2013-12-16,38,28,18,29,21,15,100,85,70,30.18,30.06,29.98,10,5,0,20,8,23,T,7,Fog-Snow,192
2013-12-17,41,33,25,27,19,13,85,60,35,30.27,30.21,30.15,10,10,10,28,12,35,0.00,2,,273
2013-12-18,56,40,24,32,26,14,70,54,38,30.19,29.91,29.77,10,10,10,26,13,33,0.00,0,,186
2013-12-19,41,36,31,34,33,30,96,83,70,29.82,29.76,29.71,10,7,0,17,10,22,T,5,Fog,38
2013-12-20,31,26,21,30,23,19,100,94,88,29.94,29.84,29.74,10,4,0,20,10,26,0.02,8,Fog-Rain-Snow,346
2013-12-21,24,23,21,22,20,17,96,89,81,29.92,29.78,29.67,9,5,0,17,9,22,0.34,8,Fog-Snow,16
2013-12-22,24,14,4,22,15,-1,92,83,73,30.39,29.99,29.73,10,6,0,23,13,29,0.27,5,Fog-Snow,335
2013-12-23,5,-2,-10,-2,-8,-14,87,72,56,30.65,30.57,30.40,10,10,10,21,11,25,0.00,3,,292
2013-12-24,21,3,-16,19,1,-18,95,79,63,30.63,30.40,30.19,10,8,2,17,9,22,0.00,5,,170
2013-12-25,35,28,20,28,20,14,100,82,64,30.33,30.26,30.18,10,6,2,23,11,28,0.00,6,,263
2013-12-26,40,29,17,26,20,12,84,69,54,30.31,30.23,30.15,10,10,10,22,11,28,0.00,1,,230
2013-12-27,44,31,18,28,24,16,92,71,49,30.31,30.24,30.14,10,10,8,17,11,20,0.00,0,,224
2013-12-28,47,39,31,30,28,26,85,67,49,30.12,29.97,29.86,10,10,10,26,14,34,0.00,1,,209
2013-12-29,32,17,2,21,1,-10,81,61,40,30.37,30.24,29.98,10,9,3,29,15,37,T,4,Snow,332
2013-12-30,26,13,-1,19,3,-10,77,65,53,30.35,30.25,30.12,10,10,10,23,9,31,T,6,,216
2013-12-31,35,22,8,22,11,4,91,74,56,30.35,30.23,30.08,10,10,10,23,10,27,0.00,1,,53